7 * 24
多渠道服务支持
IRIDIUM 5(铱星5号)是美国于1997年5月5日发射的低轨通信卫星,隶属于铱星卫星星座。该星座运行于近地轨道,相比地球静止轨道具备低延迟、低功耗优势,通过多星组网实现全球无死角通信覆盖, even支持极地等偏远区域,为全球卫星电话、数据传输等服务提供基础设施支撑,是早期全球卫星移动通信系统的重要组成部分。
美国
(US)
| 数据来源 | 国际轨道数据 |
| 星历时间: | 2026-03-15T07:09:05+0800 10小时前 查看轨道信息 |
| 半长轴: | 6952.177km |
| 偏心率: | 0.0099771 |
| 轨道倾角: | 86.389° |
| 近地点辐角 | 243.642° |
| 升交点赤经 | 318.564° |
| 平近点角 | 115.454° |
| 近地点: | 504.677km |
| 远地点: | 643.403km |
| 周期: | 96.148分钟 |
| 每日圈数: | 14.976889 |